Lexington Weather

Lexington, Massachusetts, USA

75°F
9/22/2021 1:02pm 
  • Lexington Conditions: Overcast
  • Temperature: 74.8°F / 23.8°C 
  • Dew Point: 68.2°FDecreased 0.7°Fsince last hour.
  • Relative Humidity: 80%Decreased 2.0% since last hour.
  • Wind: Wind from S S 10 mph, 10-min avg: 3 mph, gust: 11 mph
  • Barometer: 30.11 inFalling 0.02  inHg/hr Falling Slowly
  • Visibility: 10 miles
  • Rain Today: 0.00 in
  •   

Regional Weather Roundup
for Boston / Norton, MA

        
000
ASUS41 KBOX 191104
RWRBOX

REGIONAL WEATHER ROUNDUP
NATIONAL WEATHER SERVICE BOSTON/NORTON MA
700 AM EDT SUN SEP 19 2021

NOTE:  "FAIR" INDICATES FEW OR NO CLOUDS BELOW 12,000 FEET WITH NO 
SIGNIFICANT WEATHER AND/OR OBSTRUCTIONS TO VISIBILITY.

MAZALL-191200-
EASTERN MASSACHUSETTS
  
CITY           SKY/WX    TMP DP  RH WIND       PRES   REMARKS
BOSTON         MOCLDY    65  55  70 N12       30.09R                  
BEVERLY        CLOUDY    62  56  80 N7        30.09R                  
LAWRENCE       MOCLDY    61  58  90 NW3       30.13R                  
BEDFORD        CLOUDY    61  58  90 NW5       30.10R                  
BLUE HILL      NOT AVBL                                               
NORWOOD        MOCLDY    63  58  83 N7        30.09R                  
MARSHFIELD     CLOUDY    64  57  77 VRB9G17   30.08R                  
PLYMOUTH       CLEAR     62  58  86 N10       30.07R                  
TAUNTON        PTCLDY    60  58  92 N3        30.08R                  
NEW BEDFORD    CLEAR     63  59  87 N6        30.06R                  
$$

MAZALL-191200-
CAPE COD AND THE ISLANDS
  
CITY           SKY/WX    TMP DP  RH WIND       PRES   REMARKS
FALMOUTH       CLEAR     63  59  88 N10       30.05R                  
HYANNIS        PTCLDY    65  60  84 N13G23    30.03R                  
CHATHAM        PTCLDY    63  59  87 VRB6      30.05R                  
PROVINCETOWN   MOCLDY    64  58  80 N15       30.07R                  
NANTUCKET      CLOUDY    68  59  73 N18       30.03R                  
MARTHAS VNYRD  PTCLDY    63  60  90 N13       30.05R                  
$$
 
MAZALL-191200-
CENTRAL AND WESTERN MASSACHUSETTS
  
CITY           SKY/WX    TMP DP  RH WIND       PRES   REMARKS
WORCESTER      CLOUDY    59  50  72 N9        30.12R                  
FITCHBURG      CLOUDY    60  53  77 NW5       30.13R                  
ORANGE         CLEAR     52  51  97 CALM      30.15R                  
SPRINGFIELD    PTCLDY    56  51  81 N8        30.12R                  
WESTFIELD      CLEAR     54  53  97 CALM      30.13R                  
NORTH ADAMS    FOG       51  50  96 CALM      30.18R VSB 1/2          
PITTSFIELD     CLEAR     50  48  93 CALM      30.16R                  
$$
 
RIZALL-191200-
RHODE ISLAND
  
CITY           SKY/WX    TMP DP  RH WIND       PRES   REMARKS
PROVIDENCE     MOCLDY    65  60  84 N12       30.08R                  
NEWPORT        CLEAR     62  58  86 N8        30.06R                  
BLOCK ISLAND   CLOUDY    65  62  90 N12G17    30.07R                  
SMITHFIELD     MOCLDY    60  57  89 N10       30.10R                  
WESTERLY       MOCLDY    61  58  90 N8        30.07R                  
$$
 
CTZALL-191200-
CONNECTICUT
  
CITY           SKY/WX    TMP DP  RH WIND       PRES   REMARKS
BRADLEY INTL   PTCLDY    57  54  89 N7        30.12R                  
HARTFORD       CLEAR     62  53  72 N6        30.11R                  
BRIDGEPORT     CLEAR     63  53  70 N10       30.09R                  
DANBURY        CLEAR     58  53  84 CALM      30.15R                  
GROTON         MOCLDY    64  58  80 N13       30.07R                  
NEW HAVEN      CLEAR     64  57  78 N12       30.09R                  
CHESTER        FAIR      61  55  82 N10       30.10R                  
MERIDEN        CLEAR     62  52  69 N5        30.11R                  
WILLIMANTIC    MOCLDY    59  54  83 N3        30.11R                  
OXFORD         CLEAR     55  51  86 N8        30.13R                  
$$

MEZ002-015-021-024-NHZ003-005-008-011-012-014-VTZ005-008-191200-
NORTHERN NEW ENGLAND
  
CITY           SKY/WX    TMP DP  RH WIND       PRES   REMARKS
PORTLAND ME    CLEAR     55  50  83 N9        30.13R                  
BANGOR ME      PTCLDY    52  46  80 N9        30.12R                  
CONCORD NH     CLEAR     54  49  83 NW3       30.14R                  
MANCHESTER NH  MOCLDY    62  50  64 N6        30.11R                  
NASHUA NH      CLOUDY    60  57  89 NW5       30.13R                  
PORTSMOUTH NH  MOCLDY    60  51  69 N8        30.13R                  
JAFFREY NH     CLEAR     52  52 100 CALM      30.15R                  
KEENE NH       FOG       50  50 100 CALM      30.16R VSB 1/2          
BURLINGTON VT  MOCLDY    51  49  92 CALM      30.22R                  
MT. WASHINGTON PTCLDY    41   5  22 N26         N/A  WCI  30          
$$

NYZ052-076-191200-
EASTERN NEW YORK
  
CITY           SKY/WX    TMP DP  RH WIND       PRES   REMARKS
ALBANY         PTCLDY    51  51 100 N3        30.19R                  
NEW YORK CITY  PTCLDY    67  55  65 N7        30.11R                  
$$
 
ANZALL-191200-
MARINE OBSERVATIONS
  
STATION/POSITION TIME  TEMP    WIND        PRES    VSBY  WAVE
                       AIR SEA DIR/SP/G                  HT/PER
                 (UTC) (F)     (DEG/KT/KT) (MB)    (MI)  (FT/S)
BOSTON BUOY      1040      65   10/ 17/ 21 1018.8R
BUZZARDS BAY     1000           10/ 17/ 20 1017.8R
NANTUCKET SOUND  1040   68 72   10/ 17/ 21 1016.9R
MASS BAY-STELLWA 1004   64      20/ 19/ 23 1017.5R  1 7/8
ISLE OF SHOALS   1000   62      20/ 16/ 17 1018.0R
S OF BLOCK IS    1026      71                N/A           5/ 9
$$

......................KEY.........................
  SKY/WX - SKY CONDITION/PRESENT WEATHER
  TMP    - TEMPERATURE IN FAHRENHEIT
  DWPT   - DEWPOINT IN FAHRENHEIT
  RH     - RELATIVE HUMIDITY IN PERCENT
  WIND   - DIRECTION AND SPEED IN MPH
  PRES   - MEAN SEA LEVEL PRESSURE IN INCHES OF HG
  WCI    - WIND CHILL INDEX
  VSB    - VISIBILITY IN MILES
  HX     - HEAT INDEX
  TC     - TEMPERATURE IN CELSIUS
  VRB    - VARIABLE WIND DIRECTION
  N/A    - NOT AVAILABLE
  
      

Other recent Regional Weather Roundups

Wed Sep 22, 12:05pm

Wed Sep 22, 11:04am

Wed Sep 22, 10:04am

Wed Sep 22, 9:04am

Wed Sep 22, 8:04am

Wed Sep 22, 7:04am

Wed Sep 22, 6:04am

Wed Sep 22, 5:04am

Wed Sep 22, 4:04am

Wed Sep 22, 3:04am

Wed Sep 22, 2:04am

Wed Sep 22, 1:04am

Wed Sep 22, 12:04am

Tue Sep 21, 11:04pm

Tue Sep 21, 10:04pm

Tue Sep 21, 9:04pm

Tue Sep 21, 8:04pm

Tue Sep 21, 7:04pm

Tue Sep 21, 6:04pm

Tue Sep 21, 5:04pm

Tue Sep 21, 4:04pm

Tue Sep 21, 3:04pm

Tue Sep 21, 2:04pm

Tue Sep 21, 1:04pm

Tue Sep 21, 12:04pm

Tue Sep 21, 11:04am

Tue Sep 21, 10:04am

Tue Sep 21, 9:04am

Tue Sep 21, 8:04am

Tue Sep 21, 7:04am

Tue Sep 21, 6:04am

Tue Sep 21, 5:04am

Tue Sep 21, 4:04am

Tue Sep 21, 3:04am

Tue Sep 21, 2:04am

Tue Sep 21, 1:04am

Tue Sep 21, 12:04am

Mon Sep 20, 11:04pm

Mon Sep 20, 10:04pm

Mon Sep 20, 9:04pm

Mon Sep 20, 8:04pm

Mon Sep 20, 7:04pm

Mon Sep 20, 6:04pm

Mon Sep 20, 5:04pm

Mon Sep 20, 4:04pm

Mon Sep 20, 3:04pm

Mon Sep 20, 2:04pm

Mon Sep 20, 1:04pm

Mon Sep 20, 12:04pm

Mon Sep 20, 11:04am

Mon Sep 20, 10:04am

Mon Sep 20, 9:04am

Mon Sep 20, 7:04am

Mon Sep 20, 6:04am

Mon Sep 20, 5:04am

Mon Sep 20, 4:04am

Mon Sep 20, 3:04am

Mon Sep 20, 2:04am

Mon Sep 20, 1:04am

Mon Sep 20, 12:04am

Sun Sep 19, 11:04pm

Sun Sep 19, 10:04pm

Sun Sep 19, 9:04pm

Sun Sep 19, 8:04pm

Sun Sep 19, 7:04pm

Sun Sep 19, 6:04pm

Sun Sep 19, 5:04pm

Sun Sep 19, 4:04pm

Sun Sep 19, 3:04pm

Sun Sep 19, 2:05pm

Sun Sep 19, 1:04pm

Sun Sep 19, 12:04pm

Sun Sep 19, 11:04am

Sun Sep 19, 10:05am

Sun Sep 19, 9:04am

Sun Sep 19, 8:04am

Sun Sep 19, 6:04am

Sun Sep 19, 5:04am

Sun Sep 19, 4:04am

Sun Sep 19, 3:04am

Sun Sep 19, 2:04am

Sun Sep 19, 1:04am

Sun Sep 19, 12:04am

Sat Sep 18, 11:05pm

Sat Sep 18, 10:04pm

Sat Sep 18, 9:04pm

Sat Sep 18, 8:04pm

Sat Sep 18, 7:04pm

Sat Sep 18, 6:04pm

Sat Sep 18, 5:04pm

Sat Sep 18, 4:04pm

Sat Sep 18, 3:04pm

Sat Sep 18, 2:04pm

Sat Sep 18, 1:04pm

Sat Sep 18, 12:04pm

Sat Sep 18, 11:04am

Sat Sep 18, 10:04am

Sat Sep 18, 9:04am

Sat Sep 18, 8:04am

Sat Sep 18, 7:04am

Sat Sep 18, 6:04am

Sat Sep 18, 5:04am

Sat Sep 18, 4:04am

Sat Sep 18, 3:04am

Sat Sep 18, 2:04am

Sat Sep 18, 1:04am

Sat Sep 18, 12:04am

Fri Sep 17, 11:04pm

Fri Sep 17, 10:04pm

Fri Sep 17, 9:04pm

Fri Sep 17, 8:04pm

Fri Sep 17, 7:04pm

Fri Sep 17, 6:04pm

Fri Sep 17, 5:04pm

Fri Sep 17, 4:04pm

Fri Sep 17, 3:04pm

Fri Sep 17, 2:04pm

Fri Sep 17, 1:04pm

Fri Sep 17, 12:05pm

Fri Sep 17, 11:04am

Fri Sep 17, 10:04am

Fri Sep 17, 9:04am

Fri Sep 17, 8:04am

Fri Sep 17, 7:04am

Fri Sep 17, 6:04am

Fri Sep 17, 5:04am

Fri Sep 17, 4:04am

Fri Sep 17, 3:04am

Fri Sep 17, 2:04am

Fri Sep 17, 1:04am

Fri Sep 17, 12:04am

Thu Sep 16, 11:04pm

Thu Sep 16, 10:04pm

Thu Sep 16, 9:04pm

Thu Sep 16, 8:04pm

Thu Sep 16, 7:04pm

Thu Sep 16, 6:04pm

Thu Sep 16, 5:04pm

Thu Sep 16, 4:04pm

Thu Sep 16, 3:04pm

Thu Sep 16, 2:04pm

Thu Sep 16, 1:05pm

Thu Sep 16, 12:04pm

Thu Sep 16, 11:05am

Thu Sep 16, 10:05am

Thu Sep 16, 9:04am

Thu Sep 16, 8:04am

Thu Sep 16, 7:04am

Thu Sep 16, 6:04am

Thu Sep 16, 5:04am

Thu Sep 16, 4:04am

Thu Sep 16, 3:04am

Thu Sep 16, 2:04am

Thu Sep 16, 1:04am

Thu Sep 16, 12:04am

Wed Sep 15, 11:04pm

Wed Sep 15, 10:04pm

Wed Sep 15, 9:04pm

Wed Sep 15, 8:04pm

Wed Sep 15, 7:04pm

Wed Sep 15, 6:04pm

Wed Sep 15, 5:05pm

Wed Sep 15, 4:04pm

Wed Sep 15, 3:04pm

Wed Sep 15, 2:04pm

Wed Sep 15, 1:04pm

Meta data:

ID: 51433633-9b8a-498c-be4f-4b976dbaa3c5
Link: https://api.weather.gov/products/51433633-9b8a-498c-be4f-4b976dbaa3c5